Find Starlink 5577

NORAD ID: 55751 Int'l Des: 2023-028 Owner: SPXS Country: US Constellation: starlink operational
LEOCIRCULAR

Live Position

Loading 3D Globe...

About Starlink 5577

Description loading...

Upcoming Passes

Passes for default location (London). Set your location on the main map for personalized predictions.

Altitude History

Loading altitude history...

Two-Line Element Set

1 55751U 23028L 26107.11497250 .00000739 00000-0 69716-4 0 9995
2 55751 70.0006 147.6627 0003484 267.2487 92.8273 14.98326010171796
Epoch: Apr 17, 2026 • Age: 12 hours

Current Status

Altitude 580.1 km
Velocity 7.57 km/s
Sub-Earth Point -26.35°S, 92.54°W
Launch Date Mar 3, 2023
Age 3.1 years
Type internet

Technical Details

Classification Payload
Mass 305.00 kg
Dry Mass 290.00 kg
Total Mass 305.00 kg
Length 0.20 m
Diameter 2.80 m
Span 9.00 m
Shape Box + pan
Manufacturer SPXS
Bus Type Starlink
Phase Status In Orbit
Owner/State SPXS/US

Most Searched